User: anonymous
Location: Writing-on-Stone Provincial Park
(49.0825°N, 111.6163°W)
Time: 22:14:04
(UTC-06:00)
Language:

BREEZE-M DEB (TANK) - Orbit

View from above orbital plane
View from above orbital plane
View from above satellite
View from above satellite

Ground track
Ground track

The orbit data is extracted from the following two-line orbital elements,

1 29649U 06056B   14208.31371946  .00004076  00000-0  56446-3 0  9676
2 29649 049.5010 282.1209 5428190 225.5605 263.4378 04.94152723135222
Epoch (UTC): 27 July 2014 07:31:45
Eccentricity: 0.5428190
inclination: 49.5010°
perigee height: 278 km
apogee height: 16085 km
right ascension of ascending node: 282.1209°
argument of perigee: 225.5605°
revolutions per day: 4.94152723
mean anomaly at epoch: 263.4378°
orbit number at epoch: 13522

The dashed part of the orbit path shows where the satellite is in the earth's shadow,  

DLR